AFR250 LFPG-ENGM

Flight info

Callsign AFR250
Flight time N/A
Altitude 37000
Route NURMO DCT CMB DCT VEKIN DCT ADUTO DCT VICOT/N0446F380 DCT GODOS/N0449F370 DCT LARGA DCT PENUN DCT ODINU DCT BOBGA DCT ADOPI
Aircraft A320/M-SDE3FGHIRWY/LB1

Departure

Time 2026-05-01 08:27
Airport Charles de Gaulle International Airport (LFPG)

Arrival

Time N/A
Airport Oslo-Gardermoen International Airport (ENGM)
Time Latitude Longitude Altitude Speed Heading
2026-05-01 07:39 49.00690 2.57553 354 ft 0 kts 227°
2026-05-01 08:12 49.00707 2.57583 362 ft 4 kts 231°
2026-05-01 08:13 49.00723 2.57615 360 ft 4 kts 240°
2026-05-01 08:13 49.00733 2.57651 362 ft 4 kts 281°
2026-05-01 08:13 49.00728 2.57667 362 ft 0 kts 339°
2026-05-01 08:18 49.00730 2.57666 360 ft 2 kts 339°
2026-05-01 08:18 49.00768 2.57524 355 ft 15 kts 263°
2026-05-01 08:19 49.00687 2.57221 361 ft 13 kts 238°
2026-05-01 08:19 49.00659 2.57093 357 ft 12 kts 253°
2026-05-01 08:19 49.00635 2.56982 360 ft 10 kts 257°
2026-05-01 08:19 49.00630 2.56879 354 ft 9 kts 266°
2026-05-01 08:20 49.00626 2.56786 354 ft 10 kts 266°
2026-05-01 08:20 49.00616 2.56635 354 ft 18 kts 264°
2026-05-01 08:20 49.00606 2.56412 356 ft 24 kts 265°
2026-05-01 08:20 49.00590 2.56156 360 ft 26 kts 264°
2026-05-01 08:21 49.00569 2.55879 356 ft 27 kts 265°
2026-05-01 08:21 49.00556 2.55584 354 ft 29 kts 265°
2026-05-01 08:21 49.00408 2.55493 355 ft 26 kts 171°
2026-05-01 08:21 49.00236 2.55565 356 ft 26 kts 165°
2026-05-01 08:22 49.00063 2.55641 362 ft 26 kts 163°
2026-05-01 08:22 48.99918 2.55774 359 ft 23 kts 137°
2026-05-01 08:22 48.99828 2.55804 359 ft 0 kts 180°
2026-05-01 08:23 48.99824 2.55804 358 ft 3 kts 180°
2026-05-01 08:23 48.99783 2.55803 360 ft 9 kts 184°
2026-05-01 08:23 48.99750 2.55704 357 ft 14 kts 262°
2026-05-01 08:24 48.99741 2.55527 354 ft 20 kts 266°
2026-05-01 08:24 48.99696 2.55374 357 ft 10 kts 178°
2026-05-01 08:24 48.99683 2.55415 357 ft 4 kts 97°
2026-05-01 08:24 48.99654 2.55473 355 ft 0 kts 128°
2026-05-01 08:25 48.99643 2.55495 358 ft 7 kts 128°
2026-05-01 08:25 48.99600 2.55580 357 ft 13 kts 128°
2026-05-01 08:25 48.99591 2.55687 356 ft 5 kts 100°
2026-05-01 08:25 48.99592 2.55699 354 ft 0 kts 82°
2026-05-01 08:26 48.99594 2.55715 357 ft 8 kts 82°
2026-05-01 08:26 48.99612 2.56018 354 ft 63 kts 88°
2026-05-01 08:26 48.99663 2.57030 357 ft 126 kts 85°
2026-05-01 08:27 48.99736 2.58609 432 ft 167 kts 88°
2026-05-01 08:27 48.99813 2.60407 1010 ft 171 kts 89°
2026-05-01 08:27 48.99883 2.62246 1703 ft 177 kts 89°
2026-05-01 08:27 48.99948 2.64151 2380 ft 186 kts 89°
2026-05-01 08:28 49.00010 2.66153 2929 ft 192 kts 90°
2026-05-01 08:28 49.00068 2.68240 3443 ft 203 kts 88°
2026-05-01 08:28 49.00204 2.70494 3773 ft 226 kts 84°
2026-05-01 08:28 49.00437 2.73002 4130 ft 254 kts 83°
2026-05-01 08:29 49.00697 2.75779 4849 ft 269 kts 84°
2026-05-01 08:29 49.00888 2.78591 5860 ft 271 kts 88°
2026-05-01 08:29 49.00991 2.81494 6853 ft 274 kts 89°
2026-05-01 08:29 49.01255 2.84374 7654 ft 284 kts 71°
2026-05-01 08:30 49.02339 2.86901 8531 ft 291 kts 43°
2026-05-01 08:30 49.04086 2.88475 9452 ft 297 kts 17°
2026-05-01 08:30 49.06143 2.88765 10337 ft 302 kts 355°
2026-05-01 08:30 49.08299 2.88414 10769 ft 323 kts 354°
2026-05-01 08:31 49.10614 2.88005 11054 ft 347 kts 353°
2026-05-01 08:31 49.13099 2.87556 11289 ft 370 kts 353°
2026-05-01 08:31 49.15700 2.87092 11830 ft 380 kts 354°
2026-05-01 08:31 49.18348 2.86630 12550 ft 386 kts 354°
2026-05-01 08:32 49.21036 2.86171 13279 ft 391 kts 354°
2026-05-01 08:32 49.23754 2.85711 14003 ft 396 kts 354°
2026-05-01 08:32 49.26514 2.85245 14623 ft 401 kts 354°
2026-05-01 08:32 49.29301 2.84772 15240 ft 405 kts 354°
2026-05-01 08:33 49.32123 2.84288 15848 ft 410 kts 354°
2026-05-01 08:33 49.34974 2.83798 16450 ft 415 kts 354°
2026-05-01 08:33 49.37854 2.83302 17032 ft 419 kts 354°
2026-05-01 08:33 49.40766 2.82798 17605 ft 423 kts 354°
2026-05-01 08:34 49.43712 2.82288 18192 ft 427 kts 354°
2026-05-01 08:34 49.46684 2.81773 18731 ft 432 kts 354°
2026-05-01 08:34 49.49679 2.81252 19234 ft 435 kts 354°
2026-05-01 08:34 49.52700 2.80729 19752 ft 438 kts 354°
2026-05-01 08:35 49.55744 2.80204 20266 ft 441 kts 354°
2026-05-01 08:35 49.58807 2.79676 20759 ft 444 kts 355°
2026-05-01 08:35 49.61882 2.79147 21265 ft 447 kts 355°
2026-05-01 08:35 49.64989 2.78611 21760 ft 450 kts 355°
2026-05-01 08:36 49.68106 2.78070 22240 ft 453 kts 355°
2026-05-01 08:36 49.71244 2.77522 22709 ft 455 kts 355°
2026-05-01 08:36 49.74408 2.76966 23168 ft 458 kts 355°
2026-05-01 08:36 49.77548 2.76596 23595 ft 460 kts
2026-05-01 08:37 49.80738 2.76952 23990 ft 460 kts 11°
2026-05-01 08:37 49.83857 2.78060 24357 ft 460 kts 20°
2026-05-01 08:37 49.86830 2.79873 24732 ft 460 kts 28°
2026-05-01 08:37 49.89601 2.82340 25102 ft 459 kts 35°
2026-05-01 08:38 49.92310 2.84995 25471 ft 461 kts 35°
2026-05-01 08:38 49.95028 2.87663 25822 ft 464 kts 35°
2026-05-01 08:38 49.97762 2.90352 26170 ft 466 kts 35°
2026-05-01 08:38 50.00504 2.93056 26513 ft 468 kts 35°
2026-05-01 08:39 50.03256 2.95777 26853 ft 470 kts 35°
2026-05-01 08:39 50.06022 2.98507 27179 ft 472 kts 35°
2026-05-01 08:39 50.08803 3.01251 27507 ft 474 kts 35°
2026-05-01 08:39 50.11594 3.04007 27828 ft 476 kts 35°
2026-05-01 08:40 50.17197 3.09558 28587 ft 477 kts 35°
2026-05-01 08:40 50.19994 3.12333 29068 ft 475 kts 35°
2026-05-01 08:40 50.22810 3.15028 29511 ft 475 kts 31°
2026-05-01 08:41 50.25799 3.17247 29963 ft 476 kts 26°
2026-05-01 08:41 50.28817 3.19355 30411 ft 475 kts 26°
2026-05-01 08:41 50.31829 3.21460 30800 ft 473 kts 26°
2026-05-01 08:41 50.34828 3.23560 31184 ft 472 kts 26°
2026-05-01 08:42 50.37831 3.25666 31571 ft 471 kts 26°
2026-05-01 08:42 50.40777 3.27743 31955 ft 470 kts 26°
2026-05-01 08:42 50.43733 3.29917 32355 ft 469 kts 27°
2026-05-01 08:42 50.46656 3.32179 32737 ft 468 kts 28°
2026-05-01 08:43 50.49550 3.34492 33120 ft 467 kts 28°
2026-05-01 08:43 50.52434 3.36810 33510 ft 466 kts 28°
2026-05-01 08:43 50.55351 3.39021 33902 ft 465 kts 26°
2026-05-01 08:43 50.58300 3.41116 34286 ft 464 kts 25°
2026-05-01 08:44 50.61250 3.43133 34627 ft 463 kts 24°
2026-05-01 08:44 50.64213 3.45130 34971 ft 462 kts 24°
2026-05-01 08:44 50.67161 3.47124 35303 ft 461 kts 24°
2026-05-01 08:44 50.70093 3.49136 35624 ft 460 kts 25°
2026-05-01 08:45 50.73018 3.51174 35932 ft 459 kts 25°
2026-05-01 08:45 50.75930 3.53227 36233 ft 458 kts 25°
2026-05-01 08:45 50.78840 3.55293 36521 ft 457 kts 25°
2026-05-01 08:45 50.81734 3.57356 36802 ft 457 kts 25°
2026-05-01 08:46 50.84628 3.59417 37080 ft 456 kts 25°
2026-05-01 08:46 50.87520 3.61473 37241 ft 457 kts 25°
2026-05-01 08:46 50.93332 3.65593 37265 ft 458 kts 25°
2026-05-01 08:47 50.99145 3.69719 37266 ft 458 kts 25°
2026-05-01 08:47 51.04957 3.73851 37272 ft 458 kts 25°
2026-05-01 08:48 51.10782 3.78016 37271 ft 458 kts 25°
2026-05-01 08:48 51.16590 3.82193 37276 ft 458 kts 25°
2026-05-01 08:49 51.22366 3.86347 37280 ft 458 kts 25°
2026-05-01 08:49 51.28175 3.90542 37283 ft 458 kts 25°
2026-05-01 08:50 51.33988 3.94745 37289 ft 458 kts 25°
2026-05-01 08:50 51.39793 3.98952 37291 ft 458 kts 25°
2026-05-01 08:51 51.45724 4.02659 37295 ft 458 kts 13°
2026-05-01 08:51 51.52048 4.03475 37347 ft 458 kts 354°
2026-05-01 08:52 51.55186 4.02684 37588 ft 457 kts 347°
2026-05-01 08:52 51.58304 4.01621 37845 ft 457 kts 348°